Weather History for KAXH - January, 2013

Change the Weather History Date:

Thursday, January 3, 2013

  Actual Average (KHOU) Record (KHOU)
Temperature  
Mean Temperature 46 °F 53 °F  
Max Temperature 52 °F 62 °F 83 °F (1989)
Min Temperature 39 °F 43 °F 16 °F (1911)
Degree Days  
Heating Degree Days 20 13  
Month to date heating degree days 39  
Since 1 July heating degree days 578  
Moisture  
Dew Point 32 °F    
Average Humidity 59    
Maximum Humidity 75    
Minimum Humidity 38    
Precipitation  
Precipitation 0.00 in 0.10 in 3.44 in (1890)
Month to date precipitation 0.30  
Year to date precipitation 0.30  
Sea Level Pressure  
Sea Level Pressure 30.36 in    
Wind  
Wind Speed 8 mph (NNE)    
Max Wind Speed 13 mph    
Max Gust Speed 18 mph    
Visibility 10 miles    
Events      
T = Trace of Precipitation, MM = Missing Value Source: NWS Daily Summary

Daily Weather History Graph

Daily Weather History Graph

Search for Another Location

Airport or City:

Trip Planner

Search our weather history database for the weather conditions in past years. The results will help you decide how hot, cold, wet, or windy it might be!

Date:

Astronomy

Jan. 03, 2013 Rise Set
Actual Time 7:17 AM CST 5:36 PM CST
Civil Twilight 6:51 AM CST 6:02 PM CST
Nautical Twilight 6:21 AM CST 6:31 PM CST
Astronomical Twilight 5:52 AM CST 7:00 PM CST
Moon 11:40 PM CST (1/3) 10:58 AM CST (1/3)
Length of Visible Light 11h 11m
Length of Day
10h 18m
Waning Gibbous, 65% of the Moon is Illuminated
Jan 3
Waning Gibbous
Jan 4
Last Quarter
Jan 11
New
Jan 18
First Quarter
Jan 26
Full

Hourly Weather History & Observations

Time (CST) Temp. Windchill Dew Point Humidity Pressure Visibility Wind Dir Wind Speed Gust Speed Precip Events Conditions
12:15 AM 42.1 °F 37.7 °F 34.2 °F 74% 30.29 in 10.0 mi North 6.9 mph - N/A   Overcast
12:35 AM 42.1 °F 38.4 °F 34.2 °F 74% 30.30 in 10.0 mi North 5.8 mph - N/A   Overcast
12:55 AM 42.1 °F 37.7 °F 34.2 °F 74% 30.30 in 10.0 mi North 6.9 mph - N/A   Overcast
1:15 AM 41.9 °F 36.3 °F 33.8 °F 73% 30.30 in 10.0 mi North 9.2 mph - N/A   Overcast
1:35 AM 41.9 °F 38.2 °F 34.0 °F 73% 30.30 in 10.0 mi North 5.8 mph - N/A   Overcast
1:55 AM 41.9 °F 36.9 °F 34.0 °F 73% 30.30 in 10.0 mi North 8.1 mph - N/A   Overcast
2:15 AM 41.5 °F 35.9 °F 33.3 °F 72% 30.31 in 10.0 mi North 9.2 mph - N/A   Overcast
2:35 AM 41.4 °F 36.8 °F 33.3 °F 73% 30.32 in 10.0 mi North 6.9 mph - N/A   Overcast
2:55 AM 41.4 °F 35.7 °F 33.3 °F 73% 30.32 in 10.0 mi North 9.2 mph 16.1 mph N/A   Overcast
3:15 AM 41.2 °F 35.0 °F 33.3 °F 73% 30.32 in 10.0 mi North 10.4 mph - N/A   Overcast
3:35 AM 41.0 °F 35.2 °F 33.1 °F 73% 30.32 in 10.0 mi North 9.2 mph - N/A   Overcast
3:55 AM 41.0 °F 35.2 °F 33.3 °F 74% 30.31 in 10.0 mi North 9.2 mph - N/A   Overcast
4:15 AM 41.0 °F 35.8 °F 33.1 °F 73% 30.32 in 10.0 mi North 8.1 mph - N/A   Overcast
4:35 AM 41.0 °F 35.8 °F 32.9 °F 73% 30.33 in 10.0 mi North 8.1 mph - N/A   Overcast
4:55 AM 40.6 °F 36.0 °F 32.9 °F 74% 30.33 in 10.0 mi NNE 6.9 mph - N/A   Overcast
5:15 AM 40.6 °F 34.3 °F 32.7 °F 73% 30.32 in 10.0 mi North 10.4 mph - N/A   Overcast
5:35 AM 40.5 °F 34.6 °F 32.7 °F 74% 30.32 in 10.0 mi North 9.2 mph - N/A   Overcast
5:55 AM 40.3 °F 34.9 °F 32.9 °F 75% 30.33 in 10.0 mi North 8.1 mph - N/A   Overcast
6:15 AM 40.3 °F 33.4 °F 32.7 °F 74% 30.34 in 10.0 mi NNE 11.5 mph - N/A   Overcast
6:35 AM 40.3 °F 34.4 °F 32.4 °F 73% 30.35 in 10.0 mi NNE 9.2 mph - N/A   Overcast
6:55 AM 40.1 °F 34.1 °F 32.0 °F 73% 30.36 in 10.0 mi North 9.2 mph - N/A   Overcast
7:15 AM 39.6 °F 33.5 °F 32.0 °F 74% 30.37 in 10.0 mi NNE 9.2 mph - N/A   Overcast
7:35 AM 39.2 °F 33.6 °F 32.0 °F 75% 30.37 in 10.0 mi North 8.1 mph - N/A   Overcast
7:55 AM 39.2 °F 35.0 °F 32.0 °F 75% 30.38 in 10.0 mi North 5.8 mph - N/A   Overcast
8:15 AM 39.4 °F 35.2 °F 32.0 °F 75% 30.40 in 10.0 mi North 5.8 mph - N/A   Mostly Cloudy
8:35 AM 40.5 °F 34.1 °F 32.0 °F 72% 30.39 in 10.0 mi NNE 10.4 mph - N/A   Mostly Cloudy
8:55 AM 40.8 °F 35.0 °F 31.8 °F 70% 30.40 in 10.0 mi NNE 9.2 mph - N/A   Mostly Cloudy
9:15 AM 41.2 °F 35.5 °F 32.0 °F 70% 30.41 in 10.0 mi NNE 9.2 mph - N/A   Mostly Cloudy
9:35 AM 42.1 °F 36.1 °F 32.0 °F 67% 30.41 in 10.0 mi NNE 10.4 mph - N/A   Overcast
9:55 AM 43.7 °F 38.6 °F 32.0 °F 63% 30.41 in 10.0 mi NNE 9.2 mph - N/A   Overcast
10:15 AM 45.1 °F 39.9 °F 32.4 °F 61% 30.41 in 10.0 mi NNE 10.4 mph - N/A   Overcast
10:35 AM 45.3 °F 40.6 °F 31.8 °F 59% 30.41 in 10.0 mi NNE 9.2 mph 16.1 mph N/A   Overcast
10:55 AM 46.4 °F 40.7 °F 32.0 °F 57% 30.40 in 10.0 mi NNE 12.7 mph 16.1 mph N/A   Overcast
11:15 AM 47.1 °F - 32.0 °F 56% 30.40 in 10.0 mi NNE 11.5 mph - N/A   Mostly Cloudy
11:35 AM 49.5 °F - 32.5 °F 52% 30.38 in 10.0 mi NE 12.7 mph 17.3 mph N/A   Scattered Clouds
11:55 AM 49.8 °F - 31.5 °F 49% 30.37 in 10.0 mi NNE 11.5 mph 17.3 mph N/A   Scattered Clouds
12:15 PM 50.0 °F - 31.3 °F 49% 30.36 in 10.0 mi NNE 8.1 mph 17.3 mph N/A   Mostly Cloudy
12:35 PM 50.7 °F - 30.6 °F 46% 30.34 in 10.0 mi ENE 9.2 mph - N/A   Scattered Clouds
12:55 PM 51.4 °F - 30.2 °F 44% 30.35 in 10.0 mi NNW 6.9 mph 18.4 mph N/A   Mostly Cloudy
1:15 PM 50.5 °F - 28.8 °F 43% 30.33 in 10.0 mi NNE 9.2 mph - N/A   Overcast
1:35 PM 50.9 °F - 28.4 °F 42% 30.34 in 10.0 mi NNE 8.1 mph - N/A   Overcast
1:55 PM 51.4 °F - 28.0 °F 40% 30.34 in 10.0 mi North 5.8 mph - N/A   Overcast
2:15 PM 51.8 °F - 28.4 °F 41% 30.33 in 10.0 mi North 8.1 mph - N/A   Overcast
2:35 PM 51.8 °F - 27.5 °F 39% 30.34 in 10.0 mi North 6.9 mph - N/A   Overcast
2:55 PM 52.3 °F - 27.3 °F 38% 30.33 in 10.0 mi North 8.1 mph - N/A   Overcast
3:15 PM 52.2 °F - 28.0 °F 39% 30.34 in 10.0 mi North 6.9 mph - N/A   Overcast
3:55 PM 52.2 °F - 28.4 °F 40% 30.34 in 10.0 mi North 8.1 mph - N/A   Overcast
4:15 PM 52.2 °F - 28.9 °F 41% 30.34 in 10.0 mi North 6.9 mph - N/A   Overcast
4:35 PM 52.0 °F - 28.4 °F 40% 30.35 in 10.0 mi North 6.9 mph - N/A   Overcast
4:55 PM 51.8 °F - 27.0 °F 38% 30.36 in 10.0 mi North 9.2 mph - N/A   Overcast
5:15 PM 51.3 °F - 28.6 °F 42% 30.36 in 10.0 mi North 5.8 mph - N/A   Overcast
5:35 PM 50.9 °F - 30.9 °F 46% 30.37 in 10.0 mi North 9.2 mph - N/A   Overcast
5:55 PM 50.4 °F - 31.6 °F 49% 30.37 in 10.0 mi North 9.2 mph - N/A   Overcast
6:15 PM 50.2 °F - 32.0 °F 50% 30.38 in 10.0 mi North 5.8 mph - N/A   Overcast
6:35 PM 50.2 °F - 32.0 °F 50% 30.39 in 10.0 mi North 6.9 mph - N/A   Overcast
6:55 PM 50.2 °F - 31.8 °F 49% 30.40 in 10.0 mi NNE 9.2 mph - N/A   Overcast
7:15 PM 50.0 °F - 31.3 °F 49% 30.40 in 10.0 mi NNE 9.2 mph - N/A   Overcast
7:35 PM 50.0 °F - 31.3 °F 49% 30.40 in 10.0 mi North 8.1 mph - N/A   Overcast
7:55 PM 49.6 °F - 32.0 °F 51% 30.40 in 10.0 mi NNE 3.5 mph - N/A   Overcast
8:15 PM 48.6 °F - 32.0 °F 53% 30.40 in 10.0 mi NNE 4.6 mph - N/A   Mostly Cloudy
8:35 PM 49.1 °F - 32.0 °F 52% 30.40 in 10.0 mi NNE 6.9 mph - N/A   Overcast
8:55 PM 49.3 °F - 32.2 °F 52% 30.40 in 10.0 mi North 4.6 mph - N/A   Overcast
9:15 PM 49.1 °F - 32.4 °F 53% 30.40 in 10.0 mi North 4.6 mph - N/A   Overcast
9:35 PM 49.3 °F - 32.4 °F 52% 30.41 in 10.0 mi North 4.6 mph - N/A   Overcast
9:55 PM 48.6 °F - 32.9 °F 55% 30.41 in 10.0 mi North 3.5 mph - N/A   Overcast
10:15 PM 48.7 °F - 33.6 °F 56% 30.41 in 10.0 mi North 3.5 mph - N/A   Overcast
10:35 PM 48.2 °F - 34.0 °F 58% 30.40 in 10.0 mi NNE 3.5 mph - N/A   Overcast
10:55 PM 46.9 °F - 34.2 °F 61% 30.39 in 10.0 mi NNE 4.6 mph - N/A   Overcast
11:15 PM 46.6 °F - 34.5 °F 63% 30.38 in 10.0 mi NE 5.8 mph - N/A   Overcast
11:35 PM 47.1 °F - 34.5 °F 62% 30.37 in 10.0 mi ENE 5.8 mph - N/A   Overcast